Presure
120 120 131 135 117 132 152 130 124 122 160 147 147 163 158 189 180 137 139 137 146 156 162 154 157 111 136 141 151 149 132 135 137 135 140 148 144 143 140 143 143 146 168
100 123 103 141 116 112 99 132 134 132 150 144 135 127 107 150 152 159 131 136 126 128 122 107 154 139 134 132 119 132 127 139 141 147 127 155 164 164 169 169 155 149 158
144 130 108 109 132 128 113 142 101 142 151 120 112 137 123 127 123 127 123 134 137 136 134 144 142 141 134 141 144 148 152 148 133 130 119 133 140 136 126 163 146 163 144
111 107 118 118 102 140 129 128 135 132 113 128 129 139 132 124 133 113 145 117 114 129 133 144 120 135 131 140 120 131 132 133 131 124 145 131 157 138 166 149 156 171 181
137 141 151 137 109 109 156 110 124 132 125 148 147 124 123 121 131 133 119 124 137 117 121 129 129 127 134 123 120 138 113 130 124 155 155 148 150 154 194 178 173 182 177
132 134 96 131 119 116 146 125 143 110 140 124 144 125 140 142 121 95 147 124 117 131 133 132 140 123 122 105 137 127 123 123 149 110 158 149 147 150 149 182 175 184 164
133 104 134 102 148 140 137 143 112 132 125 140 140 132 136 121 139 132 125 130 127 118 122 140 106 117 126 130 141 152 148 153 166 112 146 152 164 185 188 186 181 180 162
125 134 141 136 133 132 131 138 131 139 119 131 142 139 137 128 122 134 123 119 148 144 146 122 128 137 124 123 153 152 149 142 154 147 142 159 195 188 188 184 183 182 187
139 137 130 113 106 129 139 111 130 126 129 125 136 136 140 142 142 131 127 146 145 143 143 141 143 144 142 141 137 136 160 146 147 146 174 199 180 182 179 100 170 180 180
140 138 136 134 88 143 63 124 139 128 131 107 125 107 137 132 136 127 111 141 139 138 139 115 142 146 147 155 151 142 152 143 154 168 189 194 188 166 176 172 174 179 180
105 124 140 139 139 129 134 141 130 125 126 134 134 157 130 145 142 143 129 137 145 152 154 143 125 144 147 149 148 158 157 153 164 167 196 165 183 178 180 174 187 182 170
99 134 149 136 136 128 127 125 127 138 140 141 135 135 133 139 103 148 136 143 148 139 104 152 136 121 102 156 158 160 155 163 168 114 182 189 181 175 177 176 177 181 173
140 142 147 133 146 146 143 141 137 136 135 133 142 135 141 139 144 146 139 159 141 144 145 147 149 150 130 157 159 169 180 182 187 182 173 170 172 172 169 171 170 176 189
144 143 88 137 134 125 134 133 107 134 130 133 144 139 102 155 152 145 143 145 148 138 153 154 154 92 105 162 167 171 186 180 189 174 173 169 169 169 195 214 197 204 214
149 80 113 143 83 132 139 139 125 143 138 92 139 144 113 145 89 146 152 133 123 157 153 133 136 172 175 173 173 190 176 173 172 169 171 169 185 224 216 207 200 204 196
147 149 146 152 141 148 147 98 123 147 146 146 152 146 143 144 94 151 151 133 115 160 124 169 172 170 174 182 181 191 172 171 172 171 184 187 221 215 206 207 206 207 217
146 150 151 145 148 149 147 148 148 148 149 150 145 146 152 150 152 160 159 163 158 162 86 165 174 177 182 179 168 174 174 180 190 194 215 219 215 208 206 206 204 210 212
148 149 147 149 149 152 153 150 149 146 151 152 154 154 155 160 151 162 153 158 157 170 173 178 179 189 179 175 175 183 183 194 184 206 207 212 212 196 202 207 203 205 211
150 148 150 152 153 153 153 152 152 149 151 152 149 153 165 163 166 167 156 171 173 180 181 178 178 181 179 181 188 194 195 192 211 211 221 211 208 199 212 209 200 205 199
148 148 147 151 148 149 153 152 152 153 159 161 161 159 167 161 168 173 179 180 182 174 177 181 178 189 212 206 197 200 210 210 216 222 206 215 204 203 211 201 202 202 196
158 158 161 158 161 161 162 162 162 158 163 163 163 165 173 175 180 186 186 180 187 182 181 188 191 223 232 236 237 228 222 176 221 193 215 184 192 211 197 198 199 190 190
174 166 165 164 167 170 172 171 170 168 171 174 176 180 183 191 183 191 186 184 176 197 191 195 234 177 183 163 186 222 230 222 193 199 212 198 213 203 201 200 200 188 199
163 162 160 158 162 161 168 177 179 180 173 168 170 179 180 181 185 190 188 174 198 195 199 155 179 231 185 184 187 189 205 204 201 202 203 206 204 201 195 195 196 198 192
136 173 177 177 163 150 171 168 173 162 152 181 178 183 179 176 181 202 154 154 144 161 181 184 184 177 193 190 191 205 184 193 191 205 198 201 198 189 193 197 198 198 204
177 139 180 150 177 181 183 178 153 184 185 174 180 196 193 197 174 202 171 209 158 224 182 182 192 196 195 191 199 196 200 203 205 204 205 206 203 203 203 202 194 194 195
159 157 171 162 167 165 170 165 175 168 177 165 166 188 179 159 169 154 177 231 181 201 192 194 199 200 201 217 220 211 222 222 219 216 208 207 205 202 202 194 198 201 198
Wind_Speed
31 32 31 30 26 26 27 27 25 23 25 26 27 26 27 22 25 30 30 32 40 38 39 42 42 28 36 42 49 45 34 39 42 37 44 53 50 49 48 48 48 50 62
27 34 28 33 29 27 27 26 28 25 30 28 28 25 26 32 31 33 29 34 30 31 30 28 42 39 38 36 33 37 33 46 48 56 44 61 64 64 67 67 56 51 58
38 37 30 31 32 30 28 32 31 31 30 28 26 30 24 26 26 31 29 35 39 38 37 46 45 44 38 46 51 54 57 54 40 38 38 42 49 44 41 67 51 64 50
31 30 32 35 30 35 34 32 34 32 29 31 31 34 30 28 32 28 36 32 31 34 39 47 35 41 42 47 36 41 43 45 43 41 55 48 64 49 67 57 60 67 72
39 39 41 36 33 34 36 33 32 34 31 38 38 29 29 33 34 38 31 33 43 35 35 40 41 41 47 40 40 55 38 45 42 65 65 60 61 67 73 70 63 72 72
41 38 26 38 37 37 42 34 40 33 39 32 43 33 44 45 33 29 48 39 36 43 46 45 52 41 42 34 56 45 42 43 62 39 72 64 62 65 63 69 73 72 65
47 34 43 35 47 44 41 44 34 36 34 43 45 40 44 36 49 47 38 43 44 39 44 55 38 42 48 50 58 65 63 67 74 39 63 72 69 75 69 69 72 73 62
43 46 49 47 43 46 45 44 38 43 37 40 48 49 50 45 45 49 44 44 57 60 59 47 52 58 49 46 69 68 65 62 72 68 63 78 76 71 69 70 71 72 74
53 50 44 43 41 44 49 36 40 38 41 41 51 51 54 57 58 46 46 61 61 59 60 59 61 64 63 63 58 58 78 70 72 71 83 78 77 72 71 39 66 74 74
58 54 53 50 18 56 11 39 53 42 47 34 44 39 57 52 57 48 42 63 61 59 61 44 65 70 70 75 74 68 76 69 81 85 87 76 73 78 72 74 74 75 75
33 46 61 60 59 50 54 59 52 46 48 56 56 61 54 67 65 66 58 63 70 72 72 66 57 69 72 75 74 80 80 79 86 87 78 66 71 74 74 75 77 79 76
36 55 67 56 55 49 49 49 51 60 61 62 59 59 60 66 41 72 61 66 70 63 43 74 65 60 50 82 84 85 80 87 89 44 78 73 74 75 75 76 77 81 80
64 67 67 58 69 69 66 62 61 60 60 57 67 62 66 64 69 71 63 79 66 68 69 71 75 78 64 86 88 91 90 87 82 80 77 76 77 75 76 78 80 82 82
74 68 35 59 60 55 59 61 43 61 59 64 73 66 42 79 78 72 69 71 73 66 80 83 85 45 50 92 85 90 86 84 80 81 80 80 78 78 74 66 74 71 64
80 34 48 71 31 61 65 66 59 74 69 40 68 72 54 74 39 73 79 67 63 86 84 73 75 93 94 91 89 89 84 83 81 84 84 82 86 70 69 64 69 66 68
78 80 79 83 74 82 83 45 62 79 78 76 83 79 75 75 46 81 81 72 60 92 68 96 96 95 95 95 92 86 84 84 83 86 89 88 76 71 69 67 68 67 64
79 84 87 77 83 85 83 81 80 80 83 84 78 82 86 81 85 93 91 97 90 94 36 96 97 97 97 94 86 86 86 88 91 89 88 81 73 73 74 70 70 70 65
84 84 82 84 84 85 86 82 82 79 86 84 90 91 89 94 82 96 85 92 90 99 97 100 96 94 94 93 93 94 93 93 88 93 85 80 75 77 78 74 72 70 68
86 84 87 90 89 88 87 87 87 82 87 88 84 89 100 95 97 97 88 98 98 99 99 98 98 97 94 94 97 96 94 90 92 89 79 76 76 76 76 74 73 72 69
82 82 80 87 82 79 85 88 89 93 96 99 99 95 100 92 99 101 101 98 96 95 98 99 96 103 101 98 97 96 97 94 91 85 81 78 75 76 77 76 75 74 73
92 94 98 97 100 100 100 100 101 98 101 100 99 100 105 104 106 104 103 98 99 96 98 101 104 104 96 92 88 91 88 84 84 86 82 81 81 77 77 80 78 77 78
101 99 100 98 99 102 103 102 102 102 104 108 108 107 106 106 100 103 98 97 94 104 102 104 101 92 91 84 86 87 84 83 88 87 83 84 81 81 80 79 82 81 81
87 87 86 86 92 91 98 106 106 106 102 96 93 99 98 96 94 98 99 93 107 104 105 84 91 96 96 94 92 90 90 88 90 89 87 85 84 83 83 82 84 82 85
63 103 108 108 89 71 98 92 98 78 71 99 101 101 89 92 91 107 79 84 84 90 93 96 95 95 100 98 96 98 92 92 90 89 91 89 87 86 85 86 85 87 89
107 68 106 78 104 107 107 101 76 105 103 91 95 108 108 109 89 108 88 111 84 105 94 96 100 101 103 103 105 103 103 101 100 98 96 95 91 91 88 89 87 90 92
83 82 95 83 87 85 91 87 95 84 89 79 81 97 94 85 91 86 97 113 95 105 100 102 102 104 107 107 105 107 107 104 101 99 98 97 96 94 92 90 95 100 97
Wind_Direction
231 235 239 245 241 250 238 248 252 245 246 252 257 257 263 258 259 278 279 279 283 280 277 282 283 277 286 287 292 296 302 304 302 299 302 303 303 301 296 302 290 293 303
229 233 227 240 236 237 240 256 265 264 263 264 271 270 254 271 268 271 282 286 287 287 284 271 284 298 300 298 281 297 291 302 302 303 294 298 298 299 300 300 298 295 298
250 236 230 238 250 250 241 260 245 259 261 259 256 278 269 275 278 282 281 291 295 297 298 298 299 299 298 299 298 298 297 298 294 288 283 295 298 292 279 304 294 303 287
229 228 240 234 240 263 253 257 266 266 251 266 272 280 272 276 280 283 283 288 289 292 292 293 287 287 285 297 283 295 296 295 291 284 299 294 305 294 303 298 302 301 301
249 252 248 256 236 240 251 245 256 265 262 272 275 268 269 270 280 289 268 283 288 273 276 289 293 290 298 289 281 298 282 291 286 302 304 301 302 306 304 301 298 301 301
247 250 243 250 250 245 258 256 265 257 274 266 278 272 283 282 266 267 282 277 272 291 293 293 293 283 282 283 294 286 284 286 302 285 305 302 301 301 300 300 301 300 298
247 243 251 242 255 259 259 261 249 272 268 280 280 281 278 264 284 281 273 289 286 273 280 290 279 280 286 288 293 300 299 302 301 285 300 302 303 305 303 301 301 300 293
249 247 253 256 255 254 255 263 271 276 255 278 277 278 276 277 277 282 278 281 287 287 290 278 284 290 281 284 301 300 299 298 301 300 295 301 306 304 303 302 301 301 301
251 253 252 244 246 259 267 263 271 269 276 269 282 283 281 279 281 283 278 287 288 291 291 291 293 295 293 294 291 293 300 298 300 298 303 305 303 304 303 278 300 300 300
250 254 256 257 251 260 258 259 271 273 276 266 270 270 282 281 284 279 270 287 289 289 290 280 293 295 295 296 297 295 297 295 300 302 307 303 302 300 300 300 300 299 298
256 255 255 257 259 258 264 265 266 268 271 278 277 277 273 276 281 282 283 285 290 292 293 291 287 292 292 293 294 297 298 298 300 301 303 298 300 301 300 300 300 297 298
243 248 249 255 255 258 261 262 266 272 273 274 274 276 275 279 270 283 283 285 288 286 276 293 287 292 293 297 299 299 297 299 301 285 303 303 301 300 301 299 298 297 298
253 254 251 257 255 257 261 265 270 270 271 270 276 276 277 280 285 285 283 289 285 289 290 291 292 293 289 298 299 298 301 301 303 301 299 299 299 299 297 297 295 296 298
252 256 248 258 260 253 264 267 262 269 271 273 275 277 272 282 284 285 285 288 290 284 292 294 296 275 282 297 296 300 302 301 299 297 297 297 296 295 299 300 295 299 304
253 253 253 261 248 265 268 269 271 271 272 268 278 280 274 282 269 286 287 286 284 293 294 291 291 295 296 296 298 301 298 297 296 295 295 295 297 303 302 301 299 301 299
255 255 259 259 260 262 264 265 267 272 274 277 279 280 279 282 276 288 290 286 284 294 286 295 295 295 297 298 298 298 295 295 294 293 296 297 303 302 300 302 303 303 304
255 255 257 261 261 262 265 268 272 275 276 277 278 279 281 284 286 287 290 290 293 294 297 293 294 295 296 296 294 294 293 295 298 300 303 304 303 302 302 303 303 303 302
254 256 260 261 263 265 267 270 272 274 275 277 279 280 283 285 288 288 291 291 291 292 293 294 294 296 295 294 294 296 296 299 296 303 302 301 302 301 302 301 301 301 301
254 257 258 260 263 266 268 270 272 274 276 277 280 283 281 284 286 287 287 289 291 293 294 293 294 295 293 294 295 296 296 296 300 299 297 298 298 298 299 298 298 299 297
256 259 263 262 265 268 269 271 273 273 274 276 277 281 283 285 287 288 289 289 290 291 292 293 292 294 296 295 295 295 296 297 297 295 297 296 297 297 297 296 297 297 298
254 255 256 259 261 264 265 266 269 275 276 277 281 283 284 285 286 288 290 290 291 290 290 292 292 297 296 294 292 291 292 291 292 293 294 293 295 295 293 295 295 295 295
254 256 257 261 264 265 267 267 269 272 276 279 279 280 283 285 287 289 289 291 289 294 292 293 297 289 290 288 290 290 290 290 290 292 291 292 293 292 292 293 293 293 294
256 259 261 263 264 266 269 270 272 273 274 279 282 283 284 284 286 289 290 287 292 292 293 287 289 294 289 289 290 291 290 290 289 289 290 289 289 289 290 289 290 292 291
256 259 259 261 264 267 268 271 272 274 272 277 281 283 285 284 284 289 278 282 286 285 287 288 287 288 290 290 290 289 290 288 287 286 287 286 287 287 287 288 289 291 294
256 260 260 263 265 267 268 271 270 274 278 277 279 283 286 288 286 292 280 292 281 292 286 287 289 290 289 290 290 290 289 288 287 286 287 287 287 287 288 289 287 288 290
259 260 264 267 269 270 271 272 275 275 279 279 280 285 285 279 284 283 288 294 287 290 288 288 289 289 288 286 285 285 285 284 283 282 282 282 283 285 286 286 288 287 286